Location: Newark
(48.1500°N, 2.9667°W)
Time: 06:51:53
(UTC+00:00)

Altair - All Passes

Search period start: 26 January 2020 00:00
Search period end: 05 February 2020 00:00
Orbit: 1502 x 1682 km, 47.2° (Epoch: 25 January)

Date Brightness Start Highest point End Pass type
(mag) Time Alt. Az. Time Alt. Az. Time Alt. Az.
26 Jan - 07:23:55 10° SSW 07:32:27 34° SE 07:41:07 10° ENE daylight
26 Jan - 09:26:14 10° WSW 09:36:14 70° SSE 09:46:18 10° ENE daylight
26 Jan - 11:30:50 10° W 11:41:04 86° S 11:51:12 10° E daylight
26 Jan - 13:35:47 10° WNW 13:45:47 64° SSW 13:55:33 10° SE daylight
26 Jan - 15:41:15 10° W 15:49:16 28° SW 15:57:07 10° S daylight
27 Jan - 06:59:05 10° SSW 07:07:23 31° SE 07:15:48 10° ENE visible
27 Jan - 09:01:06 10° SW 09:11:03 68° SSE 09:21:06 10° ENE daylight
27 Jan - 11:05:37 10° W 11:15:50 86° S 11:26:00 10° E daylight
27 Jan - 13:10:34 10° WNW 13:20:36 67° SSW 13:30:27 10° SE daylight
27 Jan - 15:15:54 10° WNW 15:24:13 30° SW 15:32:21 10° S daylight
28 Jan - 06:34:18 10° S 06:42:19 29° SE 06:50:28 10° E visible
28 Jan - 08:35:59 10° SW 08:45:52 65° SSE 08:55:53 10° ENE daylight
28 Jan - 10:40:24 10° W 10:50:37 86° S 11:00:48 10° E daylight
28 Jan - 12:45:20 10° WNW 12:55:25 69° SSW 13:05:20 10° ESE daylight
28 Jan - 14:50:35 10° WNW 14:59:09 33° SW 15:07:33 10° SSE daylight
29 Jan - 06:09:33 10° S 06:17:16 27° SE 06:25:06 10° E visible
29 Jan - 08:10:54 10° SW 08:20:42 62° SSE 08:30:40 10° ENE daylight
29 Jan - 10:15:12 10° W 10:25:23 86° S 10:35:35 10° E daylight
29 Jan - 12:20:07 10° WNW 12:30:14 72° SSW 12:40:13 10° ESE daylight
29 Jan - 14:25:17 10° WNW 14:34:04 35° SW 14:42:41 10° SSE daylight
30 Jan - 05:44:50 10° S 05:52:14 24° SE 05:59:44 10° E visible
30 Jan - 07:45:49 10° SW 07:55:32 60° SSE 08:05:27 10° ENE daylight
30 Jan - 09:50:00 10° W 10:00:09 85° S 10:10:22 10° E daylight
30 Jan - 11:54:55 10° W 12:05:03 74° SSW 12:15:04 10° ESE daylight
30 Jan - 14:00:00 10° WNW 14:08:59 38° SW 14:17:48 10° SSE daylight
31 Jan - 05:20:12 10° S 05:27:11 22° SE 05:34:17 10° E visible
31 Jan - 07:20:45 10° SW 07:30:23 57° SSE 07:40:13 10° ENE daylight
31 Jan - 09:24:48 10° W 09:34:55 85° S 09:45:09 10° E daylight
31 Jan - 11:29:42 10° W 11:39:51 76° SSW 11:49:55 10° ESE daylight
31 Jan - 13:34:43 10° WNW 13:43:53 40° SW 13:52:54 10° SSE daylight
31 Jan - 15:43:40 10° WSW 15:46:25 11° WSW 15:49:10 10° SW daylight
01 Feb - 04:55:37 10° S 05:02:09 20° SE 05:08:49 10° E visible
01 Feb - 06:55:43 10° SW 07:05:14 54° SSE 07:15:00 10° ENE visible
01 Feb - 08:59:36 10° WSW 09:09:43 84° S 09:19:56 10° E daylight
01 Feb - 11:04:29 10° W 11:14:39 78° SSW 11:24:45 10° ESE daylight
01 Feb - 13:09:28 10° WNW 13:18:47 43° SW 13:27:57 10° SSE daylight
01 Feb - 15:17:24 10° W 15:21:26 13° WSW 15:25:27 10° SSW daylight
02 Feb - 04:31:07 10° SSE 04:37:09 18° SE 04:43:16 10° E visible
02 Feb - 06:30:42 10° SW 06:40:06 51° SE 06:49:45 10° ENE visible
02 Feb - 08:34:25 10° WSW 08:44:29 83° S 08:54:42 10° E daylight
02 Feb - 10:39:16 10° W 10:49:26 80° SSW 10:59:34 10° ESE daylight
02 Feb - 12:44:13 10° WNW 12:53:40 46° SW 13:03:00 10° SSE daylight
02 Feb - 14:51:30 10° W 14:56:26 15° WSW 15:01:21 10° SSW daylight
03 Feb - 04:06:42 10° SSE 04:12:08 16° SE 04:17:39 10° E visible
03 Feb - 06:05:42 10° SW 06:14:59 48° SE 06:24:31 10° ENE visible
03 Feb - 08:09:14 10° WSW 08:19:16 81° SSE 08:29:29 10° E daylight
03 Feb - 10:14:04 10° W 10:24:13 81° SSW 10:34:23 10° ESE daylight
03 Feb - 12:18:58 10° WNW 12:28:33 48° SW 12:38:01 10° SE daylight
03 Feb - 14:25:46 10° W 14:31:26 17° SW 14:37:03 10° SSW daylight
04 Feb - 03:42:27 10° SSE 03:47:09 15° ESE 03:51:54 10° E visible
04 Feb - 05:40:43 10° SSW 05:49:52 46° SE 05:59:16 10° ENE visible
04 Feb - 07:44:04 10° WSW 07:54:04 80° SSE 08:04:16 10° E daylight
04 Feb - 09:48:51 10° W 09:59:00 83° S 10:09:11 10° ESE daylight
04 Feb - 11:53:44 10° WNW 12:03:25 51° SSW 12:13:00 10° SE daylight
04 Feb - 14:00:10 10° W 14:06:25 19° SW 14:12:37 10° SSW daylight
